Regional Weather Roundup
Issued by NWS

Home | Current Version | Previous Version | Graphics & Text | Print | Product List | Glossary On
Versions: 1 2 3 4 5 6 7 8 9 10 11 12 13 14 15 16 17 18 19 20 21 22 23 24 25 26 27
000
ASUS45 KBOI 290110
RWRID

IDAHO REGIONAL WEATHER ROUNDUP
NATIONAL WEATHER SERVICE BOISE ID
700 PM MDT THU JUL 28 2016

NOTE: "FAIR" INDICATES FEW OR NO CLOUDS BELOW 12000 FEET
WITH NO SIGNIFICANT WEATHER AND/OR OBSTRUCTIONS TO VISIBILITY

IDZ012-014-290200-
SOUTHWEST IDAHO


CITY           SKY/WX    TMP DP  RH WIND       PRES   REMARKS
BOISE          FAIR      98  31   9 N13       29.95F HX  92
CALDWELL       FAIR      97  49  19 NW5       29.92F HX  94
MOUNTAIN HOME  FAIR      99  36  11 N14G22    29.95  HX  94
$$

IDZ016-017-290200-
SOUTHCENTRAL IDAHO


CITY           SKY/WX    TMP DP  RH WIND       PRES   REMARKS
BURLEY         FAIR      88  46  23 W8        30.02F
JEROME         FAIR      94  38  14 W12       30.03F
TWIN FALLS     FAIR      93  39  15 VRB6      30.04F
$$

IDZ019>023-290200-
SOUTHEAST IDAHO


CITY           SKY/WX    TMP DP  RH WIND       PRES   REMARKS
IDAHO FALLS    SUNNY     90  38  16 S9        30.06F
POCATELLO      SUNNY     93  32  11 SW14      30.04F
REXBURG        NOT AVBL
$$

IDZ006-010-011-018-031-032-290200-
CENTRAL IDAHO MOUNTAINS


CITY           SKY/WX    TMP DP  RH WIND       PRES   REMARKS
MCCALL         FAIR      86  36  16 W9        30.15F
HAILEY         SUNNY     88  37  16 W8        30.09F
STANLEY          N/A     85  31  14 NW6       30.23F
SALMON         SUNNY     91  39  16 N6        30.00R
CHALLIS        FAIR      90  39  16 N9        30.06F
$$

IDZ002-004-006-007-026-290200-
NORTHERN IDAHO


CITY           SKY/WX    TMP DP  RH WIND       PRES   REMARKS
LEWISTON       FAIR      99  43  14 CALM      29.92F HX  95
LOWELL           N/A     84  57  39 CALM      29.92F
COEUR D`ALENE  FAIR      91  48  22 CALM      29.97F
MULLAN PASS    FAIR      75  45  34 NW3       30.26F
$$




USA.gov is the U.S. government's official web portal to all federal, state and local government web resources and services.